TimeMST,TemperatureF,Dew PointF,Humidity,Sea Level PressureIn,VisibilityMPH,Wind Direction,Wind SpeedMPH,Gust SpeedMPH,PrecipitationIn,Events,Conditions,WindDirDegrees,DateUTC
12:53 AM,32.0,28.9,88,29.75,10.0,SSE,3.5,-,N/A,,Overcast,160,2012-02-14 07:53:00
1:53 AM,28.9,26.1,89,29.76,10.0,SE,4.6,-,N/A,,Scattered Clouds,140,2012-02-14 08:53:00
2:53 AM,30.0,24.1,79,29.75,10.0,SE,5.8,-,N/A,,Mostly Cloudy,140,2012-02-14 09:53:00
3:53 AM,30.0,23.0,75,29.75,10.0,SSE,6.9,-,N/A,,Scattered Clouds,150,2012-02-14 10:53:00
4:53 AM,30.0,21.9,72,29.75,10.0,ESE,10.4,-,N/A,,Mostly Cloudy,110,2012-02-14 11:53:00
5:53 AM,28.0,21.9,78,29.77,10.0,Calm,Calm,-,N/A,,Mostly Cloudy,0,2012-02-14 12:53:00
6:53 AM,28.0,21.0,75,29.78,10.0,SE,8.1,-,N/A,,Partly Cloudy,140,2012-02-14 13:53:00
7:53 AM,30.9,21.9,69,29.78,10.0,East,10.4,-,N/A,,Mostly Cloudy,80,2012-02-14 14:53:00
8:53 AM,35.1,21.9,59,29.78,10.0,East,9.2,-,N/A,,Partly Cloudy,100,2012-02-14 15:53:00
9:53 AM,36.0,24.1,62,29.79,10.0,ENE,6.9,-,N/A,,Overcast,60,2012-02-14 16:53:00
10:53 AM,39.0,23.0,53,29.78,10.0,ESE,8.1,-,N/A,,Mostly Cloudy,120,2012-02-14 17:53:00
11:53 AM,42.1,25.0,51,29.75,10.0,East,6.9,-,N/A,,Partly Cloudy,100,2012-02-14 18:53:00
12:53 PM,43.0,25.0,49,29.72,10.0,Variable,3.5,-,N/A,,Mostly Cloudy,0,2012-02-14 19:53:00
1:53 PM,43.0,19.9,40,29.73,10.0,SW,13.8,20.7,N/A,,Overcast,230,2012-02-14 20:53:00
2:53 PM,46.0,18.0,33,29.70,10.0,SW,9.2,-,N/A,,Mostly Cloudy,230,2012-02-14 21:53:00
3:53 PM,45.0,19.0,36,29.68,10.0,WSW,9.2,-,N/A,,Clear,250,2012-02-14 22:53:00
4:53 PM,44.1,18.0,35,29.70,10.0,SW,8.1,-,N/A,,Clear,230,2012-02-14 23:53:00
6:53 PM,35.1,27.0,72,29.79,10.0,NW,9.2,-,N/A,,Clear,320,2012-02-15 01:53:00
7:53 PM,32.0,26.1,79,29.79,10.0,SSE,8.1,-,N/A,,Partly Cloudy,150,2012-02-15 02:53:00
8:53 PM,30.0,25.0,82,29.81,10.0,SE,5.8,-,N/A,,Clear,130,2012-02-15 03:53:00
9:53 PM,28.9,24.1,82,29.81,10.0,SE,5.8,-,N/A,,Clear,140,2012-02-15 04:53:00
10:53 PM,28.9,24.1,82,29.81,10.0,SE,8.1,-,N/A,,Clear,130,2012-02-15 05:53:00
11:53 PM,28.9,23.0,78,29.81,10.0,South,5.8,-,N/A,,Mostly Cloudy,190,2012-02-15 06:53:00